Theta_e
336 335 333 334 335 334 334 337 337 336 337 336 335 335 335 334 334 334 334 333 333 334 334 335 335 334 333 332 332 334 333 333 332 331 330 328 325 321 318 318 318 317 317 316 315 313 312 310 309 308 306 304 302 302 301 301 301 301 301 301 300 300 300 300 300 300 300 300 300 300 299 300 300 300 300 300 300 299 300 303 306 312 317 319 321
337 335 333 334 335 335 336 337 337 337 337 336 336 336 336 335 334 335 335 334 334 333 333 334 334 333 333 333 332 333 332 332 331 330 329 328 325 321 318 316 316 315 312 308 306 305 304 303 302 302 301 301 301 301 301 301 301 301 301 300 300 300 300 300 300 300 299 300 299 299 299 299 299 300 300 299 299 299 299 299 300 303 307 311 316
337 335 335 335 335 335 337 336 337 337 337 337 337 336 336 335 334 335 334 334 334 333 333 333 333 333 333 333 333 332 332 331 331 330 329 327 324 321 318 315 314 312 307 303 302 302 302 302 302 301 301 301 301 301 301 301 301 301 301 300 300 300 300 300 300 300 300 300 300 300 300 299 299 299 299 299 299 299 299 299 298 298 299 302 306
337 336 335 334 334 333 335 335 336 337 337 337 337 335 336 336 335 335 334 334 334 333 333 333 332 332 332 332 332 331 330 331 330 329 327 325 323 321 318 315 311 306 303 302 302 302 301 302 301 301 301 301 301 301 301 300 300 300 300 300 300 300 300 300 300 300 300 300 300 300 300 300 299 299 299 299 298 298 299 299 298 298 298 298 300
336 335 334 334 332 332 335 334 335 337 336 336 336 336 336 335 334 333 334 334 334 333 333 332 332 331 331 330 328 326 327 329 328 327 326 325 324 321 319 315 308 303 302 301 302 302 301 301 301 301 301 301 301 300 300 300 300 300 300 300 300 300 299 299 300 300 299 300 300 300 300 300 299 299 299 298 299 299 298 298 299 298 298 298 298
334 334 334 334 332 333 335 334 333 335 335 334 335 336 335 334 333 332 333 333 333 333 332 332 331 331 330 328 326 324 324 325 326 326 326 325 324 322 320 314 306 302 302 302 301 301 301 301 301 301 301 300 300 300 300 300 299 299 299 299 299 299 299 299 299 299 299 299 299 299 299 300 299 298 298 298 299 300 298 298 299 299 300 301 300
333 333 333 331 330 331 331 331 332 333 334 334 334 335 334 333 333 332 333 333 332 332 332 332 331 330 329 327 326 325 323 322 322 323 324 324 322 320 315 308 303 301 302 301 301 301 301 301 300 301 300 300 300 300 299 299 299 299 299 299 299 299 299 299 299 299 299 299 299 299 299 299 299 298 298 297 298 299 299 299 298 298 301 302 300
333 333 334 332 330 330 330 331 332 332 334 334 333 333 333 332 332 332 333 332 331 332 332 331 331 330 329 326 325 324 323 320 318 317 318 317 313 309 305 302 301 301 301 301 301 301 301 300 300 300 300 300 299 299 299 299 299 299 298 299 298 299 299 298 298 298 298 298 298 299 299 299 299 298 298 298 300 300 299 299 299 299 302 303 302
334 335 336 336 334 335 334 333 334 334 333 333 331 331 330 330 332 332 332 331 331 331 331 330 330 329 328 325 324 321 318 317 317 315 311 307 304 302 301 301 301 301 301 301 301 300 300 300 300 300 300 300 299 299 299 299 298 298 298 298 298 298 298 298 298 299 299 299 299 299 300 300 300 300 299 299 300 300 299 299 300 302 305 306 306
334 335 337 337 336 336 336 334 334 334 332 331 331 331 329 328 330 332 332 331 331 331 330 330 329 328 325 322 320 318 316 314 313 310 306 303 302 302 302 301 301 301 301 300 300 300 300 300 300 300 300 300 300 299 299 299 298 298 298 298 298 298 299 299 299 299 300 301 301 302 302 302 302 302 302 303 303 304 304 301 300 304 306 306 306
334 335 336 336 336 336 334 332 331 331 331 330 330 331 329 327 327 330 333 331 331 331 330 329 327 322 319 317 317 316 313 309 307 304 303 302 302 302 301 301 301 301 300 300 300 299 300 299 299 299 299 299 299 299 299 299 298 298 298 298 298 299 299 299 301 301 302 304 305 306 305 306 306 305 305 305 305 307 307 305 303 305 306 305 306
333 335 335 335 336 335 332 329 328 329 329 329 328 327 326 325 324 327 330 330 331 330 329 330 323 314 313 315 315 312 308 305 303 302 301 301 302 301 301 301 301 301 300 300 299 299 299 299 299 299 299 299 299 299 299 298 298 298 298 298 298 299 298 301 303 303 305 307 306 306 306 307 307 306 306 306 306 307 307 306 306 307 306 305 306
332 333 334 334 335 334 331 328 326 327 328 328 327 326 324 323 322 325 328 329 330 329 330 329 320 315 314 314 315 312 309 307 303 302 301 301 301 301 301 301 301 301 300 300 300 299 299 299 299 299 299 299 299 299 298 298 298 297 298 298 298 299 299 302 303 303 305 307 305 305 306 307 307 307 307 306 307 306 306 306 306 306 306 305 306
332 332 332 332 334 333 330 329 327 327 328 328 328 326 325 324 321 322 327 328 329 328 328 323 318 320 319 314 314 313 312 310 303 301 301 301 301 301 301 300 300 300 300 300 299 299 299 299 299 299 299 299 298 298 298 298 298 297 298 298 298 299 301 302 302 301 304 306 304 304 305 306 306 306 306 306 306 306 306 306 305 305 305 305 306
331 331 332 333 333 332 330 329 328 328 328 327 327 326 326 326 320 320 324 326 327 327 322 317 318 323 321 318 316 315 314 311 304 301 301 301 301 300 300 300 300 300 300 300 299 299 299 299 300 299 299 299 298 298 298 298 298 298 298 298 299 299 300 300 300 301 304 305 304 304 304 305 306 306 305 306 306 306 305 305 305 305 305 305 305
332 331 332 333 332 331 330 329 329 329 328 326 325 324 325 325 319 318 321 320 323 324 319 317 319 321 322 323 322 320 320 316 309 304 302 303 304 303 301 300 300 301 300 300 299 300 300 299 300 299 299 299 298 298 298 298 298 298 298 299 299 299 299 299 300 302 304 304 305 305 305 305 305 306 306 306 306 305 305 305 305 304 305 305 305
332 332 333 332 332 331 329 329 329 329 329 325 323 323 323 322 316 315 319 318 319 321 319 318 321 322 323 324 324 323 323 322 317 310 306 308 310 309 304 300 301 302 303 302 300 300 300 299 299 299 299 300 299 299 299 299 298 298 298 299 299 298 298 298 299 302 303 303 303 304 305 305 305 306 306 306 305 305 304 304 304 304 304 304 305
332 332 332 332 332 331 329 329 330 328 327 324 322 320 318 317 314 313 317 320 320 320 318 315 319 325 325 324 325 324 322 321 317 312 311 311 312 313 308 303 303 304 306 305 302 301 300 300 300 300 300 300 300 300 299 299 298 298 299 299 299 299 298 298 299 301 302 302 303 303 305 305 304 304 305 305 305 304 304 304 304 304 304 304 304
332 332 332 332 331 330 329 328 328 326 324 322 320 318 315 314 313 313 315 317 318 319 317 313 313 320 325 325 324 322 321 319 315 313 313 312 312 314 311 306 305 306 307 306 304 302 300 301 301 301 301 301 301 299 298 298 298 298 299 299 299 298 298 299 300 301 301 301 302 303 304 304 303 303 304 304 304 304 303 303 304 303 304 304 304
333 333 332 332 330 329 328 326 325 324 323 320 318 316 315 313 312 311 311 313 315 315 312 308 307 312 321 326 322 319 318 317 314 314 313 312 313 313 311 308 306 307 309 307 304 302 301 301 302 302 301 301 300 299 298 298 298 299 299 299 299 298 299 300 300 300 301 301 301 302 303 303 303 303 303 303 303 303 303 303 303 303 303 303 303
333 333 332 331 329 328 326 324 324 323 321 318 315 314 313 312 311 310 309 309 310 309 305 304 304 307 316 321 316 314 316 316 314 314 312 312 313 311 309 307 307 308 309 306 303 302 301 302 302 302 301 301 300 298 298 298 298 299 300 300 299 298 299 300 300 301 301 301 300 301 302 302 302 302 302 302 302 302 303 303 303 302 302 302 302
332 331 330 329 328 327 325 324 323 321 319 316 314 312 311 311 309 307 306 305 305 305 304 303 303 304 310 312 308 308 312 313 312 313 313 311 311 309 308 308 307 308 309 306 303 302 302 302 302 301 301 301 299 298 298 298 299 300 300 300 298 298 300 300 300 301 300 300 301 301 301 301 301 301 301 301 302 302 302 303 302 302 302 301 301
330 329 329 328 327 326 324 323 322 320 318 315 313 312 310 309 307 304 304 303 303 303 303 303 303 303 304 304 303 303 305 307 306 308 310 310 310 309 308 308 308 308 308 304 302 302 301 302 302 301 301 300 299 298 298 298 299 300 300 299 298 298 299 300 300 300 300 300 301 301 301 300 300 300 300 301 302 302 302 302 302 302 301 301 300
329 329 329 328 327 325 323 321 321 318 316 313 312 311 309 306 304 303 303 303 303 303 303 303 302 302 302 302 302 302 302 303 302 303 304 306 308 309 309 308 307 308 307 304 302 302 302 301 301 301 301 300 298 298 298 298 299 300 300 299 298 298 299 300 300 300 300 300 301 301 301 301 300 300 300 300 301 301 301 301 302 301 301 300 299
329 329 329 328 326 324 322 320 319 317 314 313 312 310 308 305 303 303 303 303 303 303 302 302 302 302 302 302 302 302 302 302 301 301 301 301 305 308 308 308 307 307 307 305 303 302 301 301 301 302 301 299 299 299 298 298 299 299 299 298 298 298 299 300 300 299 299 300 301 301 301 301 301 300 300 300 301 301 301 301 301 301 300 299 299
328 328 329 327 325 323 320 318 317 315 314 313 311 308 305 304 303 303 303 303 303 303 302 302 302 302 302 302 301 301 301 301 301 301 301 300 302 304 306 307 306 306 306 305 303 303 302 300 301 302 300 299 299 299 299 298 298 298 298 298 298 298 299 299 299 299 299 300 301 301 301 301 301 301 300 300 301 301 300 300 300 300 299 299 299
328 328 329 326 324 322 319 316 315 314 313 312 309 306 304 303 303 302 303 303 303 303 302 302 302 302 302 301 301 301 301 301 301 300 300 300 300 301 304 306 306 305 305 304 303 303 302 300 301 300 299 299 299 299 299 298 297 297 297 297 298 298 298 299 299 299 299 299 301 301 301 301 301 301 300 299 300 300 300 300 300 299 299 299 299
328 328 327 325 323 321 318 316 314 313 313 310 307 304 303 302 302 302 302 302 302 302 302 302 302 301 301 301 301 301 300 300 300 300 300 300 300 300 303 306 306 304 305 305 303 302 300 299 300 299 298 298 299 298 298 297 297 297 297 297 297 297 298 299 299 299 299 299 300 301 301 301 301 301 300 299 300 300 300 299 299 298 298 298 299
329 328 326 324 323 321 318 315 313 313 312 308 305 303 302 302 302 302 302 302 302 302 302 301 301 301 301 301 300 300 300 300 300 300 299 299 299 299 302 304 305 303 304 306 304 300 298 298 299 298 298 298 298 298 297 297 297 297 297 297 297 297 297 298 298 298 298 299 300 301 301 301 301 301 300 299 300 300 299 299 299 298 298 298 298
328 327 325 324 323 320 317 315 313 312 310 307 304 302 302 302 302 302 302 302 302 301 301 301 301 301 300 300 300 300 300 299 299 299 299 299 299 299 299 300 301 300 301 303 304 301 297 298 299 298 298 298 298 298 297 297 297 297 297 297 297 297 297 298 298 297 298 299 300 300 301 301 301 301 300 299 299 300 299 299 298 298 298 298 298
328 327 325 324 323 320 317 314 313 311 309 306 304 302 302 302 302 302 302 301 301 301 301 301 300 300 300 300 300 299 299 299 299 298 298 298 298 298 299 298 298 298 299 300 303 302 298 298 299 299 299 298 298 297 297 297 297 297 297 297 297 297 297 298 297 297 298 299 300 300 300 301 301 301 300 299 299 299 299 298 298 298 298 298 298
327 326 325 323 322 320 317 314 313 311 309 306 304 302 302 301 301 302 302 301 301 301 300 300 300 300 300 300 299 299 299 299 298 298 298 298 298 298 298 298 298 298 298 298 300 301 299 298 299 299 299 298 298 297 297 297 297 297 297 297 297 297 297 298 297 298 298 299 299 300 300 301 301 301 300 299 299 299 298 298 298 298 297 297 297
326 326 325 323 322 321 317 315 313 311 309 306 304 302 301 301 301 301 301 301 301 300 300 300 300 300 300 299 299 299 299 298 298 298 298 298 298 298 298 298 298 297 298 298 298 299 299 299 298 298 298 298 298 297 297 296 297 297 297 297 297 296 297 298 298 298 298 299 299 300 300 301 301 300 299 298 299 298 298 298 298 297 297 297 297
326 326 324 323 322 321 318 315 313 311 309 306 303 302 301 301 301 301 301 301 300 300 300 300 300 299 299 299 299 299 298 298 298 298 298 298 298 298 298 298 298 298 298 298 298 298 298 298 298 298 298 298 298 297 297 296 296 296 296 296 296 296 297 298 298 297 298 299 299 300 300 300 300 299 298 298 299 299 298 298 298 298 298 297 297
327 326 324 323 323 321 318 316 313 310 308 305 302 302 301 301 301 301 301 300 300 300 300 300 299 299 299 299 298 298 298 298 298 298 298 299 298 298 297 298 298 298 297 297 298 298 298 298 298 298 298 298 298 297 296 296 296 296 296 296 296 296 297 298 298 298 298 298 299 300 300 300 299 297 297 298 298 299 299 298 298 298 298 298 297
327 325 324 324 323 321 318 315 312 309 306 304 302 301 301 301 301 301 300 300 300 299 300 299 299 299 299 298 298 298 298 298 298 298 298 298 298 298 298 298 298 298 297 297 297 298 298 298 298 298 298 298 297 296 296 296 296 296 296 296 296 296 297 297 298 298 298 298 299 300 300 300 298 297 297 298 298 298 298 298 298 298 298 298 297
327 326 324 324 322 318 315 312 309 306 304 302 301 301 301 300 300 300 300 300 299 299 299 299 299 298 298 298 298 298 298 298 298 298 298 298 298 298 297 298 298 297 297 297 297 298 297 297 297 298 298 297 296 296 296 296 296 296 296 296 296 296 297 297 297 297 298 299 299 300 300 300 299 297 297 298 298 298 298 298 298 298 298 298 297
327 325 324 322 320 316 312 309 307 304 302 300 300 300 300 300 300 300 299 299 299 299 299 299 298 298 298 298 298 298 298 298 298 298 298 297 298 298 297 297 297 297 297 297 297 297 297 297 297 297 297 296 296 296 295 295 295 295 296 296 296 296 297 297 297 297 297 299 299 300 300 300 299 298 298 298 298 298 298 298 298 298 298 298 298
327 325 323 321 319 316 312 309 306 303 301 300 300 300 300 300 300 299 299 299 299 299 298 298 298 298 298 298 298 298 298 298 298 297 297 297 297 297 297 297 297 297 297 297 297 297 297 297 297 297 296 296 296 295 295 295 295 295 296 296 296 296 296 297 298 298 298 298 299 299 300 300 299 298 298 298 298 298 297 297 298 298 298 298 297
327 325 323 321 319 315 311 308 305 303 301 300 300 300 300 300 299 299 299 299 299 299 298 298 298 298 298 298 298 298 298 297 297 297 297 297 297 297 297 297 297 297 297 297 297 297 297 297 297 296 296 296 295 295 295 295 295 296 296 296 296 297 296 296 297 298 298 298 298 298 299 300 299 298 298 298 298 297 297 297 298 298 298 298 297
326 325 323 320 317 314 311 308 305 303 301 300 299 299 299 300 299 299 299 299 299 298 298 298 298 298 298 298 298 298 297 297 297 297 297 297 297 297 297 297 297 297 297 297 297 297 297 297 296 296 296 295 295 296 296 296 296 296 296 296 297 297 297 296 297 298 298 298 298 298 299 299 298 298 299 298 297 297 297 297 298 298 298 298 297
326 325 322 319 316 314 312 309 306 304 302 301 299 299 299 299 299 299 299 299 298 298 298 298 298 298 298 298 297 297 297 297 297 297 297 297 297 297 297 297 297 297 297 297 297 297 296 296 296 296 296 296 296 297 298 298 298 298 297 297 297 297 297 297 297 297 298 299 299 298 298 298 298 298 299 298 297 296 296 297 297 297 298 297 296
326 324 322 318 316 314 312 309 306 304 302 301 300 299 299 299 299 299 298 298 298 298 298 298 298 298 298 297 297 297 297 297 297 297 297 297 297 297 297 297 297 297 297 296 296 296 296 296 296 296 296 297 298 299 299 299 299 299 298 298 297 297 298 298 298 298 298 298 299 298 297 298 298 299 299 298 296 296 296 296 297 297 297 296 296
326 324 321 318 316 313 311 308 307 305 304 303 302 301 301 300 299 299 298 299 299 298 298 298 297 297 297 297 297 297 297 297 297 297 297 297 297 297 297 297 297 296 296 296 296 296 296 296 296 296 297 298 299 299 300 300 299 299 299 298 297 297 298 299 298 298 298 298 299 298 298 298 298 299 299 298 296 295 295 296 296 296 296 296 296
325 324 321 317 315 313 310 308 307 307 307 305 304 302 301 301 300 299 299 299 299 298 298 298 297 297 297 297 297 296 296 297 297 297 297 297 297 297 297 297 297 297 297 297 297 297 296 296 296 296 297 299 299 300 300 300 300 299 299 298 298 298 299 299 298 298 298 298 298 298 298 298 298 299 299 298 296 295 295 296 296 296 296 296 296
325 323 320 317 314 312 310 309 309 309 308 306 305 303 303 303 302 301 301 301 300 299 299 298 297 297 297 297 297 296 296 296 297 296 297 297 297 297 297 297 297 298 298 298 299 298 298 297 296 296 298 299 300 300 300 300 300 299 299 299 298 298 299 298 298 298 298 298 299 298 298 298 298 299 299 298 296 295 295 296 295 295 296 295 295
325 324 321 317 314 312 310 310 310 309 309 307 305 305 305 305 304 304 304 303 301 301 301 300 299 298 298 298 297 296 297 297 297 297 297 297 297 297 297 298 297 297 298 300 300 300 299 297 296 297 299 300 300 300 300 300 300 300 299 298 298 299 299 298 297 297 297 298 298 298 298 299 298 298 298 298 297 295 295 296 296 295 296 296 295
325 323 320 317 314 312 310 310 310 310 309 308 306 306 305 304 304 305 305 304 303 303 303 302 301 299 300 300 298 297 298 298 297 297 297 297 297 297 297 298 298 297 298 300 300 299 299 297 297 299 300 300 300 300 300 300 300 300 299 297 298 298 298 298 298 297 298 298 298 298 298 298 298 298 298 298 297 296 295 295 296 296 296 296 295
325 323 320 317 314 313 311 310 310 310 310 309 307 306 305 303 303 304 304 303 303 303 304 304 304 304 304 303 299 298 299 298 297 298 297 296 297 297 297 298 297 297 299 300 300 299 299 297 297 300 301 300 300 300 300 301 300 299 298 298 298 298 298 298 298 298 298 298 298 298 298 298 298 298 298 298 297 296 295 295 296 296 296 296 295
325 324 321 318 315 313 312 311 310 310 310 309 308 307 305 303 302 304 304 302 301 301 302 303 304 305 304 302 299 299 300 298 298 299 298 297 296 297 297 297 297 297 298 299 299 299 298 297 298 300 301 300 300 300 300 301 300 299 299 299 298 298 298 298 298 298 298 298 297 297 298 298 298 298 298 298 297 296 295 296 296 296 296 296 296
325 323 321 318 315 313 312 311 311 310 309 309 308 308 306 303 302 304 304 302 300 300 300 300 301 301 301 300 298 299 299 298 298 298 298 297 296 297 297 297 297 297 297 298 298 297 297 297 299 300 300 300 300 300 300 300 300 299 299 299 299 298 298 298 298 298 298 298 297 297 298 298 298 298 298 298 298 297 296 296 296 296 296 296 296
Wind_Speed
6 5 5 5 6 6 7 6 6 6 6 5 5 4 4 4 5 5 3 3 5 6 5 3 3 5 5 4 4 3 1 1 3 5 6 8 7 6 5 4 5 6 6 7 7 7 8 9 10 11 12 14 14 14 15 16 17 17 17 18 18 19 19 19 19 19 20 20 20 20 19 19 20 21 21 21 20 19 19 19 19 17 16 15 15
6 6 5 5 7 7 7 7 6 6 6 5 5 5 5 6 7 6 4 6 7 7 6 4 4 7 6 5 4 3 1 2 0 4 7 8 8 6 5 6 6 6 7 8 8 8 9 9 10 11 11 13 14 15 15 15 17 17 18 18 18 19 20 21 21 21 21 21 21 20 20 20 20 20 20 21 20 20 20 19 19 19 19 18 17
7 6 5 6 8 9 8 8 7 7 6 6 7 7 7 7 7 7 6 8 8 8 9 9 9 9 9 7 6 4 2 3 3 5 7 8 9 8 7 8 7 7 7 8 8 9 9 10 10 11 11 12 14 14 15 15 16 17 18 19 20 20 21 22 23 23 23 24 23 23 22 22 21 20 20 20 20 20 20 20 20 20 20 20 20
7 7 7 8 9 9 9 9 8 6 6 6 8 8 8 7 7 9 10 10 9 9 10 11 12 11 11 10 9 9 8 7 7 8 8 9 9 10 10 9 8 8 8 8 8 9 9 10 10 11 11 12 13 14 15 16 17 18 18 19 20 21 21 22 23 23 24 24 25 25 24 24 24 23 22 21 21 20 20 20 20 21 20 20 20
7 8 9 10 10 9 10 10 9 8 7 8 9 8 8 7 7 8 10 10 10 10 10 12 13 11 10 9 9 8 9 10 10 10 9 9 9 11 12 11 9 9 9 8 9 10 10 10 10 11 11 11 12 13 15 16 17 17 18 19 19 20 20 21 21 22 23 24 24 25 26 26 26 26 25 24 23 21 20 20 20 21 21 20 19
9 10 10 12 11 11 12 11 11 11 9 9 10 10 10 10 8 8 9 9 11 12 12 12 13 11 10 9 8 7 8 9 10 10 10 9 10 12 13 12 11 9 8 8 9 9 9 9 10 10 10 11 12 13 14 15 16 16 17 18 19 19 19 20 21 21 22 24 25 26 27 28 28 29 28 28 26 24 23 21 20 21 21 20 20
10 11 12 13 11 10 11 9 10 11 10 10 11 10 11 12 10 10 10 10 12 13 12 13 13 12 11 10 10 9 8 8 9 10 10 9 8 9 10 10 10 9 8 8 7 7 8 8 8 9 9 10 11 13 14 15 16 16 18 18 18 19 19 20 21 22 23 23 24 25 26 27 28 28 29 29 29 27 26 25 23 23 22 21 21
10 11 11 13 13 12 11 10 11 12 12 12 11 10 11 12 12 12 13 12 12 13 12 12 12 12 12 11 11 10 9 8 6 6 6 6 5 5 5 4 5 7 8 8 7 7 7 8 8 9 10 11 11 13 14 15 16 17 18 18 18 19 20 21 21 22 22 23 24 24 26 26 27 27 28 28 28 27 27 26 25 25 23 23 23
12 12 12 12 13 13 12 13 12 12 13 13 11 10 11 12 13 14 14 14 13 13 12 12 12 12 11 11 9 7 6 5 4 3 2 2 1 1 2 2 2 4 5 6 7 7 7 8 8 9 11 11 12 13 14 15 16 17 18 18 19 20 20 21 22 23 23 23 24 25 25 26 27 27 28 28 27 28 28 26 24 24 23 24 24
14 15 14 13 13 13 13 14 13 13 15 14 12 11 10 9 13 16 15 14 15 13 13 13 11 10 10 7 6 5 3 2 1 1 1 1 1 1 1 2 3 3 3 4 6 7 8 9 10 11 13 13 13 13 13 14 16 16 18 19 20 21 22 23 24 24 24 24 24 24 25 24 25 26 27 28 27 26 27 26 24 23 22 23 24
15 16 16 16 15 14 14 14 14 17 18 16 14 13 11 9 13 19 16 14 15 12 12 12 9 7 6 5 4 3 1 1 2 2 2 2 2 1 1 2 3 2 2 3 5 7 8 10 11 13 15 15 15 14 14 15 16 17 19 21 22 23 25 26 27 27 24 23 23 23 24 23 24 26 26 27 27 25 25 26 25 23 23 23 23
15 16 16 16 16 14 13 13 14 18 19 17 15 13 10 8 14 20 19 16 14 12 12 11 8 5 5 6 5 4 2 2 3 2 2 2 3 3 3 2 2 1 1 4 6 7 8 10 11 13 13 13 13 14 15 17 18 20 22 24 25 26 28 28 28 28 24 23 23 23 23 22 24 26 25 26 27 26 26 26 24 23 24 24 25
15 16 16 15 15 14 13 12 13 16 17 16 15 12 9 8 13 20 20 17 14 12 12 11 7 6 7 8 7 5 3 2 2 2 2 3 3 3 3 3 2 1 2 5 8 8 8 10 11 11 11 12 13 15 17 19 20 22 24 26 27 28 29 27 27 27 23 22 24 24 23 22 22 24 24 24 25 26 27 26 25 24 24 24 26
17 17 17 16 15 14 12 12 13 13 14 14 14 13 11 9 13 19 19 16 14 13 11 10 8 6 6 7 8 6 3 2 2 3 3 3 4 4 4 3 2 2 4 8 9 9 8 8 9 11 12 14 17 18 19 21 22 23 25 26 27 27 27 27 27 26 24 22 24 24 23 22 22 23 24 24 25 27 27 27 27 27 26 24 23
19 18 18 17 16 14 13 13 13 13 13 13 15 15 14 12 15 19 18 16 14 11 10 11 10 8 6 6 6 5 3 3 3 3 3 4 5 5 5 4 3 3 6 10 11 12 9 7 10 13 16 19 20 21 22 22 23 23 24 25 27 28 28 27 27 27 26 25 25 25 24 23 24 25 25 25 26 28 28 28 29 28 27 25 24
20 20 19 18 17 15 14 14 13 13 13 13 15 16 16 15 17 19 18 16 15 12 12 13 11 8 8 6 4 4 4 5 5 4 4 4 5 6 7 6 7 7 9 11 11 13 11 10 13 16 18 21 22 23 23 23 23 22 22 24 27 28 28 27 27 27 26 26 26 25 23 24 25 25 26 26 27 29 29 28 29 28 27 26 25
20 20 19 19 18 16 15 15 14 14 14 14 16 16 17 17 19 20 19 17 15 13 13 12 10 8 7 6 4 5 5 6 6 6 5 3 2 5 7 8 10 12 14 14 11 11 12 13 16 19 20 22 22 23 23 23 22 20 21 24 27 28 27 26 27 27 26 27 27 25 24 24 25 24 25 27 28 29 29 29 29 29 28 26 25
22 21 20 20 19 17 16 15 15 15 15 16 17 17 18 18 18 19 19 17 13 12 11 11 11 11 10 8 6 5 4 6 7 6 5 2 1 2 4 5 8 11 14 15 12 9 11 15 18 21 22 22 21 22 23 21 19 19 22 25 27 27 26 26 27 27 27 27 28 27 24 24 25 26 26 28 29 30 29 29 28 28 27 26 24
22 21 20 19 18 17 15 15 16 16 15 15 16 17 17 17 17 16 17 17 14 12 12 12 12 13 13 11 9 6 4 6 7 5 4 3 2 1 2 4 6 7 8 13 13 9 12 17 18 20 21 19 19 22 21 17 17 20 23 26 27 26 24 25 27 27 28 28 29 28 26 26 28 28 29 29 30 30 30 29 28 27 27 27 25
21 20 19 18 16 16 15 15 16 16 14 14 15 15 14 14 14 15 16 16 15 13 13 13 13 14 15 13 10 8 6 8 7 4 3 2 2 2 2 2 5 6 5 10 12 10 14 17 17 18 17 16 19 20 17 15 19 22 24 27 27 25 23 25 27 27 27 28 30 30 28 29 30 30 31 31 31 30 29 28 28 27 27 27 25
21 20 19 17 16 16 16 16 16 15 14 15 14 13 12 12 12 13 14 14 14 13 13 13 12 13 15 13 11 10 10 10 8 7 5 3 2 2 1 2 5 6 4 7 10 11 14 15 15 14 12 14 19 17 14 17 21 23 24 27 26 24 23 25 25 26 26 27 30 31 31 31 32 33 34 33 31 30 29 29 29 28 27 25 24
22 21 20 18 17 17 17 16 16 15 15 15 14 13 13 12 11 12 12 12 12 11 11 11 11 12 13 13 12 12 13 13 11 11 10 7 3 2 1 3 6 5 2 4 9 10 12 13 12 10 9 15 16 13 15 19 21 22 24 25 24 23 23 24 24 24 25 26 28 30 32 34 35 38 40 36 32 30 29 29 28 28 27 25 25
22 21 20 18 17 17 16 16 15 15 15 14 13 13 13 12 12 12 12 12 11 10 10 10 10 10 11 12 12 11 12 12 12 13 12 10 7 5 2 1 4 4 0 3 8 10 9 10 8 6 10 14 13 13 17 19 21 22 23 25 24 22 23 24 24 24 24 25 27 29 32 35 37 42 45 40 34 31 30 29 29 28 27 26 26
22 20 18 18 17 16 16 15 14 14 14 13 13 14 13 13 13 13 13 13 12 11 9 10 10 9 10 10 10 10 10 9 10 11 11 10 10 8 5 3 1 2 2 4 7 8 6 5 4 6 11 12 11 14 17 19 21 22 23 24 22 21 23 23 23 23 22 23 25 28 32 34 36 41 46 45 38 33 32 31 30 29 28 27 27
21 18 17 18 17 16 16 15 14 13 13 14 14 14 14 13 13 13 13 13 12 12 11 10 10 10 10 9 9 8 8 8 8 9 10 9 11 10 7 5 3 3 3 5 5 3 2 2 3 6 11 9 11 14 17 19 20 21 22 22 21 20 22 22 22 21 20 22 24 27 31 33 35 40 46 47 40 36 35 33 31 30 29 28 28
19 17 17 18 17 17 17 16 15 14 14 14 14 14 13 13 13 13 14 13 12 12 11 10 10 10 9 9 8 8 8 8 7 8 8 8 9 10 9 8 4 5 6 6 6 4 3 3 4 6 8 8 11 14 17 19 20 21 22 21 20 20 21 21 20 19 19 22 24 27 30 33 35 40 46 46 41 38 37 34 32 32 30 29 27
18 17 18 18 17 17 17 17 16 14 14 15 14 14 13 13 14 14 13 13 12 11 10 10 9 9 9 8 8 8 7 7 6 7 7 7 8 8 9 11 9 8 9 6 5 5 6 5 6 6 5 8 12 14 16 18 19 21 21 21 21 21 21 20 18 17 19 22 23 26 29 32 35 39 44 45 41 40 38 34 35 35 32 29 27
18 18 18 18 17 17 16 16 15 14 15 15 13 13 13 14 14 14 14 13 12 11 10 10 9 8 8 8 8 7 7 7 6 6 7 7 7 7 8 12 11 9 9 6 3 4 5 4 4 3 6 10 13 14 16 18 20 20 21 21 22 21 20 18 17 16 18 21 22 24 28 31 34 37 42 45 43 41 38 36 37 36 32 29 27
19 18 18 18 17 16 16 15 14 15 15 14 12 13 14 14 15 14 14 13 12 12 11 10 10 9 9 8 8 8 7 7 7 7 7 7 6 7 8 10 10 10 11 10 7 4 3 3 2 3 7 11 13 15 16 18 20 20 20 21 21 21 20 17 16 16 18 20 21 24 27 30 33 35 40 44 43 40 39 38 37 35 32 29 28
19 18 18 18 17 16 15 15 15 15 15 13 13 14 14 15 16 15 14 13 13 12 11 11 11 10 9 9 8 8 8 8 8 7 7 7 7 7 7 8 7 8 10 10 9 6 3 3 3 4 8 11 14 15 17 18 19 19 19 20 20 21 19 16 15 16 19 20 22 24 26 29 31 32 38 43 41 39 39 37 36 34 32 30 30
19 18 18 18 16 16 16 16 16 16 15 14 14 15 16 16 16 15 15 14 13 13 12 11 11 10 9 9 9 9 8 8 8 7 7 7 7 7 7 7 6 5 6 8 8 6 4 3 3 5 8 11 14 16 17 18 18 18 19 19 20 20 19 17 15 17 20 22 23 24 26 29 29 30 37 42 39 37 38 37 36 36 35 35 35
20 18 16 16 15 16 16 17 17 16 16 16 15 16 17 17 17 16 15 14 14 13 12 12 11 11 11 10 10 10 10 9 9 9 9 8 8 7 7 6 5 4 4 4 5 5 4 4 4 5 8 11 13 16 18 18 18 18 18 19 20 19 19 18 17 19 21 23 24 24 26 27 26 29 37 39 37 36 36 36 36 37 38 40 40
20 17 15 15 16 16 16 17 17 16 17 16 16 17 18 18 18 17 16 15 14 13 13 13 12 12 11 11 11 11 11 11 11 11 11 10 9 7 6 5 4 3 2 2 3 3 2 3 5 6 8 11 13 15 18 19 19 18 18 18 19 19 19 19 19 20 22 24 26 25 25 25 24 30 36 36 36 37 38 38 39 40 41 43 45
18 15 14 15 16 15 16 17 17 17 17 17 17 18 19 19 19 18 17 16 15 15 14 14 13 13 12 12 11 11 11 12 12 12 12 10 9 8 7 5 4 3 2 2 3 2 1 3 5 7 9 11 13 15 18 19 20 19 19 19 19 18 18 19 20 21 23 25 26 27 26 24 27 32 34 33 35 38 40 43 45 46 47 49 50
16 14 14 16 16 15 16 17 17 18 18 17 17 19 20 20 19 19 18 17 16 16 15 14 14 13 13 12 12 11 12 12 12 11 11 10 9 8 7 6 5 4 2 3 4 4 4 5 6 9 11 12 12 15 17 18 19 19 19 20 20 18 18 19 21 22 24 26 27 28 27 27 31 34 32 32 35 37 41 45 47 48 49 51 53
16 15 17 17 16 16 16 17 18 19 19 18 18 19 20 20 20 19 18 18 17 16 15 15 14 14 13 13 13 13 13 13 12 11 10 9 8 8 7 6 4 2 2 4 4 5 6 7 7 9 11 12 12 14 17 18 18 19 19 19 20 19 17 18 20 22 24 26 28 29 28 29 35 37 34 34 35 37 41 45 46 48 49 51 54
18 18 18 18 16 16 17 17 18 19 18 18 19 20 20 20 20 20 19 18 18 17 16 15 14 14 14 14 14 14 13 13 12 11 10 9 7 7 6 4 3 2 3 4 5 5 6 8 8 9 10 11 12 14 16 18 20 20 19 18 19 21 19 18 19 22 24 26 28 30 29 31 36 39 37 35 36 37 41 44 46 47 48 50 54
18 18 18 17 16 16 16 17 18 18 18 19 19 20 20 20 21 20 19 18 18 17 17 16 15 15 15 15 15 14 14 12 11 10 9 8 7 6 5 4 3 3 3 4 5 5 6 7 9 9 10 11 13 15 16 18 20 23 22 19 19 21 22 21 20 21 24 26 28 29 30 31 36 40 39 37 37 38 41 44 45 46 47 49 54
18 18 18 17 16 16 16 17 17 18 18 19 20 20 20 21 21 21 20 19 19 19 18 17 16 16 16 16 15 14 12 10 9 8 8 7 6 5 5 4 3 3 3 4 5 6 7 8 9 10 10 11 14 15 16 17 19 22 25 26 24 23 24 24 24 24 25 27 28 29 29 31 36 40 40 39 40 40 42 43 44 45 46 48 55
18 19 19 18 16 16 16 17 18 18 19 20 21 21 22 22 22 21 21 20 20 20 18 17 17 17 16 15 13 12 10 8 8 9 8 7 5 4 4 4 3 3 3 4 4 5 7 9 9 10 11 12 14 16 18 20 22 24 27 29 29 28 27 25 25 26 28 29 29 29 29 31 36 40 40 41 42 43 43 43 42 44 45 47 56
18 19 19 18 17 17 17 18 19 19 20 21 22 22 23 23 23 22 21 21 21 20 19 18 18 18 16 14 12 11 10 10 10 9 9 7 6 6 5 4 3 3 3 3 4 5 7 9 10 11 12 13 15 18 21 24 26 28 29 30 30 29 29 27 25 26 29 31 31 31 31 32 37 41 41 42 45 44 43 42 41 43 45 48 57
18 20 20 19 18 18 18 19 20 20 21 21 22 23 24 24 23 23 22 21 21 20 20 19 18 17 15 12 11 12 12 11 10 9 9 8 7 6 5 4 3 3 3 3 3 5 8 10 11 12 14 15 16 19 22 24 27 28 30 31 31 30 30 31 29 27 29 30 31 32 33 34 38 41 41 44 45 43 42 41 41 43 45 49 58
19 19 20 20 19 19 20 21 22 22 21 21 22 22 23 23 23 23 22 22 21 21 20 20 18 17 14 12 12 13 12 11 10 9 9 8 8 7 5 4 3 3 3 3 3 6 8 10 11 12 14 15 17 19 22 24 26 27 28 30 32 31 32 34 34 31 30 30 31 33 35 37 39 41 42 44 45 42 41 42 42 43 46 50 57
20 19 20 20 19 20 21 22 23 22 21 20 20 21 22 22 22 22 22 22 21 21 20 19 18 16 14 13 13 13 12 10 9 9 9 8 8 7 5 4 4 4 3 3 4 6 8 10 10 12 14 15 17 20 22 23 24 25 27 29 30 30 31 33 34 34 31 30 31 33 35 38 40 40 41 44 44 41 42 42 43 45 47 50 57
20 20 20 20 20 21 22 23 23 21 20 19 20 20 21 22 22 22 22 22 21 20 20 19 18 16 14 12 12 13 12 10 9 9 9 9 9 8 6 6 5 4 4 3 5 7 10 11 12 13 13 15 17 20 21 22 23 24 26 28 28 29 30 31 33 33 31 30 31 34 36 38 39 40 41 44 43 41 42 43 44 46 48 50 57
22 20 20 21 21 21 23 23 23 22 21 20 21 21 22 22 22 21 20 20 20 18 18 18 17 16 14 12 12 12 10 9 10 10 10 10 10 8 7 7 6 5 4 4 6 9 11 13 14 14 13 13 16 19 20 20 20 22 25 27 26 27 29 30 30 30 28 29 31 34 36 37 38 40 41 43 43 41 42 43 44 47 49 51 57
23 21 20 22 22 22 23 24 23 23 22 22 22 22 21 20 20 19 19 18 17 16 16 15 15 14 13 12 12 11 10 10 11 11 10 11 10 9 8 7 7 6 4 5 7 10 12 13 15 14 12 13 15 18 18 18 18 21 23 24 24 26 28 29 29 28 27 29 31 33 35 36 37 39 42 43 42 41 42 43 44 47 49 51 56
23 20 21 22 23 23 25 25 25 25 25 24 23 22 22 22 21 21 20 18 16 15 14 13 12 12 12 13 13 12 12 13 13 11 11 11 11 10 8 8 8 6 6 6 7 9 11 13 14 12 11 13 15 15 16 16 19 22 22 20 22 25 28 29 30 30 29 30 31 33 35 36 36 37 41 43 43 42 42 43 44 47 49 52 55
24 21 22 23 24 25 26 27 27 27 27 27 26 26 26 26 25 24 23 21 19 17 14 12 12 12 14 15 13 12 13 15 14 12 12 12 11 10 10 9 8 8 8 8 7 9 12 13 12 9 10 12 13 14 15 16 20 22 21 21 24 26 28 29 30 31 31 30 32 34 34 34 35 36 39 42 42 42 42 43 44 46 49 51 53
24 23 22 23 25 26 27 28 28 29 29 29 29 28 27 27 27 25 25 25 22 21 19 18 17 18 19 17 14 13 16 16 15 13 13 13 13 12 12 10 9 10 10 9 8 9 11 11 8 6 7 9 11 13 14 16 20 20 20 22 24 25 27 28 29 31 31 31 32 33 33 33 35 37 39 41 41 41 42 43 44 46 48 51 52
24 24 23 24 26 28 29 29 29 30 31 30 31 29 26 27 27 26 26 27 26 24 23 22 22 22 22 20 17 16 18 18 16 14 14 15 15 13 12 11 10 11 11 10 9 9 9 9 6 5 6 9 11 13 14 16 19 19 18 20 22 24 25 26 28 31 32 32 32 31 31 33 35 37 38 40 41 41 42 42 44 46 48 50 51
Wind_Direction
193 193 188 179 181 173 169 174 161 151 151 157 157 139 143 167 181 171 163 184 182 179 172 194 190 118 116 138 132 141 132 42 359 342 323 315 322 337 343 335 334 338 337 336 336 337 335 332 331 330 329 330 334 340 343 343 344 348 352 354 353 352 353 354 355 355 353 350 350 350 347 344 339 336 335 333 330 324 316 310 307 308 308 301 289
203 202 193 187 189 181 174 173 158 151 156 157 154 158 177 181 179 185 189 185 179 169 154 160 154 125 131 140 130 143 118 99 3 297 296 305 314 325 345 356 358 356 350 348 351 354 351 348 346 344 343 341 343 349 351 351 351 353 356 358 358 357 357 357 357 358 356 354 354 354 351 348 344 341 338 334 332 329 323 317 311 305 302 301 295
204 202 199 188 183 185 181 172 163 160 159 154 151 161 176 170 161 165 166 159 149 138 133 136 140 142 154 160 168 192 213 194 211 257 277 292 304 320 344 357 1 10 5 359 2 4 359 356 354 351 352 351 350 353 355 357 357 358 359 0 1 0 -0 359 358 358 356 354 353 352 351 349 348 345 343 339 335 332 327 322 318 311 306 302 299
197 195 197 187 179 186 184 171 161 161 165 162 161 166 170 164 158 156 152 141 131 135 144 152 158 168 182 189 201 215 231 239 242 253 268 283 299 318 336 348 358 16 18 10 5 6 3 359 358 358 357 356 356 357 359 2 3 4 4 4 4 3 1 360 358 357 355 352 351 349 348 347 347 346 345 343 339 336 332 328 323 317 311 306 302
197 197 193 186 184 182 177 170 164 172 181 171 168 175 170 161 157 155 152 144 142 155 164 169 173 185 200 213 220 214 218 232 247 259 272 288 305 319 327 339 354 12 19 15 6 4 4 0 1 2 359 359 1 3 4 8 10 10 10 8 7 5 2 360 357 356 354 351 349 348 346 346 346 344 344 343 342 339 335 332 327 321 318 314 308
192 197 194 186 185 179 174 172 170 175 184 179 176 181 173 165 158 146 147 158 170 179 184 186 188 197 208 221 230 221 209 214 229 248 268 288 306 316 321 330 343 0 16 16 7 2 1 1 2 2 3 4 6 11 13 15 15 15 14 11 8 5 2 0 357 356 354 351 349 348 346 345 345 343 342 342 341 339 337 334 330 326 324 323 318
190 193 190 179 180 181 178 180 179 175 179 188 189 188 182 178 169 152 157 175 183 188 195 200 202 212 219 222 229 234 233 224 222 231 244 264 284 296 307 322 334 348 4 10 8 3 3 6 3 4 12 16 16 20 21 21 20 20 17 11 8 5 3 1 358 356 354 352 349 346 345 343 342 341 340 339 339 338 338 336 332 330 327 324 319
192 191 181 171 175 180 180 185 187 179 181 191 194 194 192 188 177 164 175 188 190 197 204 211 217 224 230 232 233 237 245 248 240 230 225 232 249 266 290 316 332 345 356 359 2 7 10 14 14 16 23 28 29 28 27 26 24 22 16 11 8 5 4 2 360 357 355 352 349 345 344 343 341 340 338 337 336 335 335 334 333 332 331 328 322
186 187 177 168 168 168 173 180 182 177 179 188 194 199 195 190 183 175 184 193 196 208 213 220 230 238 246 248 245 241 241 249 255 260 252 211 216 256 296 324 346 355 357 356 3 10 15 21 25 28 30 33 37 36 32 28 26 22 15 11 8 7 7 5 2 359 356 353 350 347 345 344 341 338 336 334 333 331 331 331 333 335 334 330 324
182 181 176 170 163 163 177 184 179 174 179 185 192 207 211 199 188 184 191 198 199 211 219 226 238 249 254 249 243 244 234 233 258 293 325 40 39 337 336 4 11 6 5 11 18 19 22 27 27 29 31 29 32 36 35 31 29 23 16 13 11 11 9 7 4 360 356 353 350 348 344 343 341 339 338 336 335 336 333 332 335 336 330 325 322
183 178 176 176 172 176 189 188 178 179 186 190 191 206 220 216 196 188 193 201 202 211 223 230 243 247 236 215 208 218 200 87 54 47 33 23 20 35 37 24 11 5 26 39 41 36 35 37 34 32 32 28 26 28 29 30 30 24 19 17 15 13 11 7 3 359 356 353 351 348 345 346 345 344 343 338 337 339 336 336 338 334 326 320 318
187 180 181 181 178 187 194 185 179 186 191 196 198 203 206 207 201 193 193 203 207 214 224 232 240 218 187 180 181 170 127 76 68 77 67 28 19 32 46 48 22 351 85 68 58 50 46 47 44 39 37 34 30 28 27 27 26 24 21 17 14 12 10 6 360 356 356 355 352 349 347 350 347 345 345 342 340 339 337 337 336 329 323 320 316
191 188 192 191 187 192 197 192 189 193 195 201 210 201 179 185 203 197 195 205 208 210 222 231 225 188 168 176 173 154 132 106 98 95 80 53 36 29 32 42 30 19 71 63 57 54 52 52 51 48 43 39 34 29 28 26 25 24 19 13 11 10 6 2 357 356 357 354 352 349 348 350 347 344 344 344 344 339 336 335 328 321 318 317 320
195 195 201 203 199 197 201 204 202 203 202 207 217 209 187 187 204 201 197 205 210 211 222 224 201 163 150 170 171 157 143 159 132 104 89 69 60 47 33 22 18 56 61 54 46 42 44 50 54 52 43 37 31 26 25 24 23 21 15 9 9 7 3 359 358 360 1 355 352 351 349 348 344 341 341 343 343 339 337 336 331 326 322 316 314
199 202 206 207 208 206 208 213 216 219 217 215 216 212 203 196 203 207 203 202 207 212 213 209 195 168 151 165 176 177 185 189 163 129 116 94 72 57 43 20 8 41 54 50 40 31 29 37 48 48 39 32 26 21 20 19 18 15 10 7 7 6 2 359 -0 3 2 355 351 350 350 348 344 342 343 344 341 338 337 337 334 331 325 320 314
204 205 207 209 214 215 218 223 226 229 232 224 211 207 208 203 201 206 209 206 204 201 194 200 209 193 166 163 184 201 211 201 186 177 160 120 81 59 47 38 33 37 44 46 38 29 28 35 42 43 37 27 19 14 13 12 10 7 5 5 7 6 1 359 3 4 360 354 351 350 349 348 345 343 343 342 339 334 333 333 333 330 326 321 317
208 208 209 213 219 222 225 229 233 239 237 220 203 200 205 204 201 202 208 213 212 204 196 198 210 209 183 173 191 209 217 211 202 203 201 176 90 55 41 42 43 39 36 36 34 27 30 39 39 37 33 23 11 6 6 5 3 2 6 7 7 4 359 360 5 3 358 354 353 353 352 348 345 342 340 339 336 332 331 330 330 330 328 323 318
210 212 213 217 223 227 232 237 242 242 228 208 199 197 198 200 202 200 202 212 220 219 215 205 201 207 204 198 213 227 216 201 196 205 221 240 33 53 36 34 32 28 24 24 25 19 24 36 35 30 28 18 5 359 0 0 1 8 12 10 6 1 358 2 6 4 360 356 354 355 353 347 346 345 341 338 336 334 332 330 330 330 329 327 320
213 216 218 223 229 232 237 243 241 231 213 202 201 201 200 200 204 201 199 207 217 223 227 221 209 211 210 209 225 245 235 210 207 212 219 239 272 294 0 18 14 10 7 11 15 10 19 31 29 23 22 14 357 353 356 1 10 16 16 11 4 357 358 5 7 4 1 359 359 358 355 350 351 350 344 340 339 338 335 332 332 330 327 326 322
218 222 224 226 230 233 232 229 223 214 203 202 206 208 207 206 207 208 207 210 214 218 221 219 213 211 211 214 228 236 223 217 225 230 221 228 222 235 312 2 8 359 351 3 6 8 22 30 25 20 21 7 349 348 357 11 19 19 16 9 359 354 360 5 5 3 2 3 5 3 359 356 354 350 346 343 342 340 338 337 335 330 325 325 324
219 224 227 228 228 228 223 215 208 203 200 202 207 212 216 215 213 214 216 218 219 219 216 213 209 206 207 212 218 218 208 207 217 218 224 247 198 172 304 351 5 352 336 0 10 18 30 33 25 22 19 352 340 346 8 21 20 18 13 4 354 354 1 2 2 2 2 4 5 4 1 359 356 352 349 347 344 342 341 340 338 335 332 330 327
218 221 226 228 228 224 219 212 204 202 204 204 206 213 220 222 220 217 218 220 220 220 217 214 213 210 210 212 214 213 208 209 215 218 224 235 220 178 324 334 355 353 317 7 25 31 36 37 31 23 357 334 335 358 22 23 20 15 9 359 352 356 0 -0 0 0 2 3 2 1 0 360 359 356 354 351 347 344 342 341 339 337 336 334 332
216 219 221 224 225 222 218 211 205 204 207 208 210 216 220 221 220 217 214 213 213 216 216 217 219 218 217 218 221 221 216 217 220 221 222 218 204 182 160 309 355 10 29 65 53 52 45 33 24 354 323 324 342 16 26 23 18 11 3 355 352 357 0 0 0 359 0 1 359 358 358 358 359 358 357 354 350 347 344 342 341 338 337 336 334
212 216 218 221 222 217 212 210 208 206 207 212 216 219 221 218 216 213 210 208 207 209 213 216 220 223 223 224 229 232 231 232 231 230 231 226 213 198 180 176 91 59 120 103 83 77 61 18 346 318 309 324 2 22 24 22 16 7 359 353 354 359 2 2 0 358 358 359 358 356 355 354 354 354 355 355 354 351 347 344 342 340 339 337 336
212 216 219 223 222 212 206 208 210 209 210 215 220 223 222 218 214 211 208 208 207 208 210 214 218 220 223 225 232 238 238 240 241 240 243 243 230 215 199 183 127 105 141 124 119 113 61 333 294 304 304 332 14 20 21 18 12 5 358 353 356 1 4 3 360 356 358 2 360 355 352 350 349 351 353 355 356 353 350 348 344 341 338 338 337
215 221 225 226 222 209 204 205 209 212 216 220 222 223 220 216 213 210 208 209 209 210 211 214 219 221 223 225 229 234 236 236 239 240 241 241 236 225 204 189 148 122 145 151 176 214 285 274 254 284 305 353 16 16 17 14 9 6 359 355 359 3 4 3 358 356 1 5 -0 354 351 349 349 349 351 355 356 353 352 350 345 342 339 338 339
219 226 229 228 221 208 204 206 207 212 219 223 223 221 217 213 211 208 209 210 209 210 212 215 219 222 223 226 226 229 231 230 229 231 234 230 229 228 204 190 175 144 145 158 194 244 285 271 257 287 337 18 18 15 17 12 9 7 1 358 2 6 6 3 358 357 2 5 0 355 352 350 349 349 350 355 355 352 354 351 348 348 345 342 342
220 225 226 225 219 209 206 208 207 214 223 224 221 219 216 212 210 208 207 208 207 209 211 213 217 219 219 220 221 222 223 223 220 219 225 223 219 217 200 193 193 181 175 186 212 268 288 265 252 309 11 24 19 17 18 13 9 6 3 1 4 8 9 6 3 3 4 6 2 357 354 351 349 348 349 353 353 352 354 353 352 354 351 348 345
219 223 224 222 216 209 208 208 208 217 224 223 219 217 214 210 209 209 208 207 206 207 209 212 215 215 215 215 215 212 209 209 212 211 209 208 207 205 201 200 207 210 209 216 230 248 272 277 277 339 15 23 17 15 17 15 9 6 5 4 6 8 10 10 10 11 12 11 6 0 357 353 349 346 348 351 352 351 352 352 354 355 353 351 347
219 222 223 219 214 209 207 208 212 218 222 221 219 215 212 210 210 209 209 208 207 207 209 211 214 214 214 214 212 208 205 201 200 200 199 199 194 192 196 198 203 213 218 224 230 234 255 289 316 345 11 17 12 9 14 14 10 6 5 6 7 6 8 13 16 19 21 18 11 4 359 353 348 344 346 349 350 350 352 353 355 355 352 350 347
218 220 221 218 212 207 207 211 215 218 220 220 218 213 211 211 211 210 210 209 208 208 210 211 212 213 211 210 207 202 202 198 189 185 188 193 192 189 191 190 187 194 213 223 222 228 262 294 330 355 7 12 7 4 7 12 12 7 4 6 7 4 5 14 22 23 23 21 13 7 1 354 346 341 345 349 351 352 353 354 354 353 351 348 345
215 217 219 215 210 208 209 214 217 219 221 220 217 213 211 211 211 212 211 209 208 208 210 210 209 209 209 207 205 200 196 192 186 183 182 183 187 192 197 191 179 175 197 217 212 217 266 308 343 0 6 9 6 1 2 7 11 9 6 6 6 3 4 13 24 25 23 20 15 11 5 357 346 341 345 350 354 357 359 1 360 357 354 351 348
214 216 216 210 210 212 213 216 220 221 222 221 218 214 212 211 211 212 212 209 207 207 209 209 208 208 210 209 208 205 197 190 187 185 184 183 183 189 197 190 176 177 196 215 213 208 252 313 343 2 9 8 3 358 357 1 6 9 9 6 6 5 5 12 24 27 25 22 18 14 9 0 348 343 346 351 356 0 5 8 7 4 1 358 355
216 217 214 210 211 214 216 219 222 223 224 222 219 216 213 212 212 212 212 209 208 209 209 210 209 208 209 209 209 207 203 199 195 192 193 195 190 186 189 186 180 192 216 244 255 264 336 348 350 3 9 4 357 354 355 358 1 7 10 7 6 8 8 14 22 26 26 24 20 16 12 4 352 346 347 351 354 357 1 3 4 3 1 359 356
218 218 216 215 216 216 218 221 223 224 225 222 218 216 214 213 214 213 212 210 210 211 211 211 210 210 210 208 206 205 205 208 206 199 201 207 200 189 192 201 201 201 231 275 291 320 350 355 356 1 1 356 353 352 355 357 359 7 12 6 5 10 12 15 21 24 25 23 19 15 11 5 356 351 349 350 351 352 354 357 358 358 357 356 354
219 218 216 217 219 219 221 223 223 224 224 222 218 216 214 214 215 215 213 211 210 212 214 212 211 211 211 208 206 205 206 211 210 201 203 212 207 197 201 215 223 219 252 282 300 324 335 343 355 358 350 346 352 355 353 357 2 9 14 8 5 12 16 16 19 21 21 21 18 12 5 360 357 356 355 351 350 350 351 354 355 353 353 352 352
218 217 217 218 219 221 222 223 224 224 224 222 219 216 214 214 215 216 216 214 212 214 215 212 211 211 210 209 208 207 209 213 212 203 205 214 212 205 207 217 239 264 280 291 304 318 327 337 346 351 346 344 355 0 355 358 4 9 14 14 11 15 19 19 18 17 17 17 14 9 1 356 356 358 359 356 353 351 351 354 354 352 350 350 349
220 219 218 219 220 222 224 224 225 226 224 222 220 218 215 214 215 216 217 216 214 215 215 212 211 210 210 211 210 210 213 215 214 211 212 216 215 215 218 219 242 275 293 306 314 323 336 344 340 342 350 351 356 3 1 4 9 9 11 17 19 20 20 19 15 12 14 14 11 6 360 354 355 358 1 360 357 354 353 354 353 351 349 348 348
223 221 219 220 223 225 227 226 226 225 224 222 221 218 217 216 217 217 218 217 215 216 216 214 213 212 213 215 215 216 219 217 214 216 217 219 220 229 239 238 251 283 301 314 323 331 345 352 344 342 354 356 357 3 5 9 15 15 12 12 14 18 20 20 15 9 8 10 8 6 1 354 354 358 1 1 359 357 356 354 353 351 348 347 348
225 224 221 222 222 224 226 226 226 225 223 223 221 218 218 218 219 218 218 217 216 216 216 215 215 217 217 218 220 220 219 215 213 215 217 220 221 231 245 246 253 281 301 315 328 339 349 354 351 350 357 359 0 6 10 13 17 18 15 9 6 8 11 16 18 11 5 4 4 5 3 355 354 359 2 2 1 360 358 356 353 351 349 348 348
227 225 221 221 220 220 223 224 225 225 224 224 222 220 220 220 219 219 218 218 218 217 217 217 218 221 221 219 219 216 212 211 213 216 218 219 221 226 234 245 261 280 296 314 333 344 352 356 356 356 359 3 7 11 14 17 16 14 12 8 3 4 5 8 16 16 8 1 359 3 5 359 356 1 3 2 2 2 1 358 354 351 350 349 349
229 225 218 217 218 220 222 223 224 224 224 225 223 221 222 222 220 219 218 218 219 219 220 220 222 224 222 216 213 211 211 213 216 220 221 221 224 226 230 246 265 283 295 310 340 352 356 359 359 357 360 6 12 13 13 15 14 10 8 4 1 2 2 2 8 16 13 2 356 359 7 5 359 1 3 2 3 4 4 1 357 353 352 351 350
228 224 217 214 216 219 222 224 224 224 224 224 223 221 221 221 220 220 220 220 220 221 222 224 226 227 222 215 212 212 214 217 219 222 225 225 227 228 231 244 264 283 295 312 343 355 359 0 359 356 357 4 12 13 10 9 8 7 5 2 359 0 1 358 358 5 11 6 356 355 4 7 2 0 3 2 3 6 6 4 -0 357 356 353 352
227 224 216 214 215 215 219 222 222 223 222 221 221 220 219 219 219 220 221 222 222 221 221 224 228 228 225 217 214 213 214 218 222 228 232 232 231 231 232 241 261 277 290 318 342 351 354 355 357 356 355 1 9 11 8 4 1 1 1 359 359 359 360 357 354 357 5 6 358 353 360 5 1 359 2 2 3 6 6 5 3 0 358 355 354
226 223 216 213 213 213 216 218 218 219 219 217 217 218 219 220 220 220 222 223 222 220 221 224 227 227 226 220 216 216 216 219 224 229 235 237 236 235 235 238 246 264 290 317 337 346 347 347 350 353 354 -0 6 9 9 2 355 356 356 355 357 357 357 356 354 356 4 7 0 353 356 2 360 358 360 1 3 6 6 6 6 3 1 358 356
223 221 216 212 211 211 212 214 215 216 216 216 217 219 219 219 219 221 221 220 219 219 220 223 226 227 225 221 219 218 218 225 232 235 242 246 245 243 243 244 243 251 281 310 331 338 339 341 343 344 351 2 3 5 7 2 355 355 353 351 353 355 354 354 354 358 6 10 4 355 354 358 359 357 357 359 2 6 7 7 7 5 3 0 358
224 223 218 213 211 209 209 213 216 216 218 218 218 217 217 218 220 220 217 215 216 216 217 221 226 229 229 226 221 216 219 231 240 244 248 247 244 244 244 249 254 263 285 307 323 328 331 336 339 341 354 5 3 2 3 -0 355 351 347 347 351 353 351 351 354 359 7 11 8 358 353 356 359 357 355 356 0 5 7 7 8 7 5 3 0
222 223 219 213 211 209 209 213 216 219 221 219 214 215 219 221 222 218 213 210 207 207 214 222 226 231 235 234 225 216 222 235 241 246 251 248 247 250 253 260 270 278 291 302 312 321 327 334 338 346 -0 4 2 0 359 354 348 345 345 349 355 354 350 349 352 356 2 9 9 1 353 354 358 357 354 354 358 3 5 7 9 8 6 5 3
219 223 220 214 213 213 213 215 219 222 223 218 218 225 229 225 220 217 215 212 208 206 209 213 215 220 227 234 234 226 227 236 240 241 248 251 253 258 260 267 276 278 281 293 307 318 323 326 331 344 357 358 358 356 353 347 342 344 352 358 357 353 350 349 351 352 358 6 7 1 354 353 357 358 354 353 357 1 4 7 9 8 6 6 5
223 226 223 217 215 216 218 221 223 225 225 222 226 233 234 226 219 217 217 217 217 214 209 209 216 222 226 236 244 235 230 237 241 242 248 252 253 257 261 267 275 275 280 296 307 307 308 308 309 328 349 353 353 351 348 342 340 348 0 1 355 352 350 350 351 350 354 4 5 359 353 353 357 358 355 353 356 360 3 6 8 9 7 6 6
227 227 225 220 216 217 220 224 228 229 228 228 232 235 235 230 222 217 218 219 219 217 214 219 228 231 234 241 244 236 232 238 244 248 254 255 253 255 260 265 269 273 284 301 304 296 297 298 296 320 348 352 352 350 344 338 341 353 3 358 352 352 353 354 355 352 353 360 3 358 354 354 357 358 357 354 352 354 0 5 8 10 9 7 7